Regional Weather Roundup
Issued by NWS

Home | Current Version | Previous Version | Graphics & Text | Print | Product List | Glossary On
Versions: 1 2 3 4 5 6 7 8 9 10 11 12 13 14 15 16 17 18 19 20 21 22 23 24 25 26 27 28
000
ASUS45 KTFX 012010
RWRMT
MONTANA REGIONAL WEATHER ROUNDUP
NATIONAL WEATHER SERVICE GREAT FALLS MT
200 PM MDT SUN MAY 01 2016

NOTE: "FAIR" INDICATES FEW OR NO CLOUDS BELOW 12000 FEET WITH NO
SIGNIFICANT WEATHER AND/OR OBSTRUCTIONS TO VISIBILITY.

MTZ001>007-043-012100-
WEST OF THE DIVIDE

CITY           SKY/WX    TMP DP  RH WIND       PRES   REMARKS
KALISPELL      SUNNY     64  34  32 VRB7      30.19F
MISSOULA       SUNNY     63  35  35 SE8       30.19F
BUTTE          SUNNY     55  26  32 SE15      30.23F
MULLAN PASS    SUNNY     53  32  44 CALM      30.22F
ANACONDA         N/A     55  28  35 SW5       30.22F
DEER LODGE       N/A     57  30  35 CALM      30.23F
EUREKA           N/A     63  34  34 W5        30.22F
HAMILTON         N/A     61  32  33 N6        30.18F
LIBBY            N/A     64  36  34 W6        30.19F
PLAINS           N/A     66  40  38 CALM      30.18F
THOMPSON FALLS   N/A     67  36  31 E10       30.19F
$$

MTZ008-052>055-012100-
SOUTHWEST MONTANA

CITY           SKY/WX    TMP DP  RH WIND       PRES   REMARKS
BOZEMAN        SUNNY     60  30  32 VRB7      30.22F
DILLON         SUNNY     55  27  34 NW10      30.21F
ENNIS          SUNNY     54  28  37 NW8G15    30.27F
TWIN BRIDGES     N/A     58  26  29 N13       30.18F
$$

MTZ009-010-012-014-046-048-049-054-012100-
EAST SLOPES AND CENTRAL MONTANA

CITY           SKY/WX    TMP DP  RH WIND       PRES   REMARKS
CUT BANK       SUNNY     59  32  36 VRB6      30.26F
GREAT FALLS    SUNNY     58  29  33 CALM      30.26F
HELENA         SUNNY     62  29  28 MISG      30.23F
CHOTEAU          N/A     57  28  33 VRB6      30.26F
CONRAD           N/A     60  37  42 E8        30.26F
$$

MTZ011-013-016-021-045-047-050-051-012100-
NORTH CENTRAL MONTANA

CITY           SKY/WX    TMP DP  RH WIND       PRES   REMARKS
HAVRE          SUNNY     63  35  35 MISG      30.25F
LEWISTOWN      SUNNY     59  29  31 E8        30.27F
N BAR RANCH      N/A     54  27  35 VRB6G12   30.30F
CHINOOK          N/A     63  34  34 CALM      30.26F
$$

MTZ017>020-022>027-061-062-012100-
NORTHEAST MONTANA

CITY           SKY/WX    TMP DP  RH WIND       PRES   REMARKS
GLASGOW        SUNNY     64  29  26 N9        30.26F
JORDAN           N/A     61  31  32 VRB7      30.27F
SIDNEY         SUNNY     63  28  27 N7        30.26F
WOLF POINT     SUNNY     66  31  27 CALM      30.25F
PLENTYWOOD       N/A     64  25  22 SW7       30.23F
POPLAR           N/A     66  28  24 S5        30.25F
SCOBEY           N/A     65  27  24 SW1       30.21
$$

MTZ028>42-056>058-012100-
SOUTHCENTRAL AND SOUTHEAST MONTANA

CITY           SKY/WX    TMP DP  RH WIND       PRES   REMARKS
BAKER          PTSUNNY   58  28  32 NW6       30.28F
BILLINGS       CLOUDY    58  28  32 SE12      30.27F
LIVINGSTON     SUNNY     58  30  34 NE18      30.23F
MILES CITY     MOSUNNY   60  30  32 SW6       30.28F
EKALAKA          N/A     57  28  33 N8        30.23F
FORSYTH          N/A     59  28  31 NE7       30.27F
LAUREL           N/A     58  29  33 CALM      30.23F
ROUNDUP          N/A     58  28  32 NE1       30.17F
$$

REGIONAL REPORTS...DAKOTAS

CITY           SKY/WX    TMP DP  RH WIND       PRES   REMARKS
WILLISTON      SUNNY     64  27  24 VRB3      30.24F
MINOT          SUNNY     67  23  19 VRB3      30.23F
DICKINSON      SUNNY     60  27  28 VRB6      30.23F
BEACH            N/A     59  27  29 N9G18     30.29F
CROSBY           N/A     64  23  20 W9        30.24F
WATFORD CITY     N/A     63  23  22 NW5       30.25F
BISMARCK       SUNNY     63  29  27 MISG      30.25F
GRAND FORKS    SUNNY     64  29  26 VRB6      30.20F
FARGO          SUNNY     66  28  24 N15       30.19F
BUFFALO SD       N/A     59  28  30 NE6       30.21F
RAPID CITY     SUNNY     56  31  38 NW10G17   30.27F
$$

REGIONAL REPORTS...WYOMING/IDAHO/WASHINGTON

CITY           SKY/WX    TMP DP  RH WIND       PRES   REMARKS
GILLETTE       SUNNY     52  27  38 CALM      30.28F
SHERIDAN       SUNNY     56  28  34 CALM      30.28F
BUFFALO WY       N/A    N/A N/A N/A MISG      30.29F
CODY           SUNNY     52  27  37 NE5       30.27F
YELLOWSTONE LA   N/A     43  16  33 VRB3      30.28F
IDAHO FALLS    SUNNY     60  27  28 NE10G17   30.16F
SALMON         SUNNY     61  32  33 N8        30.15F
BOISE          SUNNY     66  37  34 VRB7      30.10F
SPOKANE        MOSUNNY   68  34  28 E13G20    30.15F
$$

REGIONAL REPORTS...ALBERTA

CITY           SKY/WX    TMP DP  RH WIND       PRES   REMARKS
EDMONTON       SUNNY     70  36  28 W9        30.13F
CALGARY        PTSUNNY   66  30  26 NE10      30.20F
LETHBRIDGE     MOSUNNY   64  32  29 CALM      30.22F
MEDICINE HAT   MOSUNNY   66  36  32 S7        30.22F
WATERTON GATE    N/A     63  30  29 NW3         N/A
MILK RIVER       N/A     61  34  36 S9          N/A
ONEFOUR          N/A     61  32  33 W7          N/A
$$

REGIONAL REPORTS...SASKATCHEWAN

CITY           SKY/WX    TMP DP  RH WIND       PRES   REMARKS
SWIFT CURRENT  SUNNY     64  30  27 W9G21     30.20F
REGINA         PTSUNNY   70  34  26 W18       30.17F
SASKATOON      MOSUNNY   70  34  26 NW17G24   30.14F
CYPRESS HILLS    N/A     59  30  33 SW9G17      N/A
VAL MARIE        N/A     64  28  25 W7          N/A
ROCKGLEN         N/A     63  28  27 W7          N/A
$$




USA.gov is the U.S. government's official web portal to all federal, state and local government web resources and services.